Back to catalog

STARLINK-3334

AliveCommunicationsVLEO
NORAD 50823·PAYLOAD·🇺🇸 United States

Launched Jan 6, 2022 from Cape Canaveral Space Force Station

Loading…

Next Passes (next 24 hours)

TLE

FreshSource: CelesTrak SupGP

Epoch: Sep 14, 2026, 23:45 UTC

1 50823C 22001W   26257.99006944 -.00031353  00000+0 -95164-3 0  2577
2 50823  53.1594  27.8149 0001197  86.2588 275.2971 15.33556338    19

Track STARLINK-3334 in real time with AllMySat

Download on the App Store